Radiation Dose at Monitoring Post of Fukushima Daini Nuclear Power Station
Date,Time,MP-1(microSv/h),MP-2(microSv/h),MP-3(microSv/h),MP-4(microSv/h),MP-5(microSv/h),MP-6(microSv/h),MP-7(microSv/h),Wind Direction,Wind Velocity(m/s),Rain
2024/03/02,00:00,0.145,0.127,0.205,0.194,0.204,0.116,0.075,west-northwest,15.1,No
2024/03/02,00:10,0.144,0.129,0.205,0.194,0.204,0.115,0.075,west-northwest,12.8,No
2024/03/02,00:20,0.145,0.129,0.205,0.194,0.204,0.115,0.075,west-northwest,12.8,No
2024/03/02,00:30,0.143,0.128,0.204,0.195,0.204,0.115,0.076,west-northwest,13.1,No
2024/03/02,00:40,0.145,0.129,0.205,0.194,0.203,0.115,0.075,west-northwest,13.1,No
2024/03/02,00:50,0.144,0.129,0.205,0.194,0.204,0.115,0.076,west-northwest,11.5,No
2024/03/02,01:00,0.145,0.129,0.206,0.194,0.204,0.115,0.075,west-northwest,10.9,No
2024/03/02,01:10,0.145,0.129,0.204,0.194,0.204,0.115,0.075,northwest,9.5,No
2024/03/02,01:20,0.146,0.129,0.205,0.194,0.204,0.115,0.075,northwest,7.7,No
2024/03/02,01:30,0.145,0.129,0.204,0.193,0.202,0.116,0.075,northwest,5.7,No
2024/03/02,01:40,0.145,0.129,0.205,0.194,0.203,0.116,0.074,north,4.6,No
2024/03/02,01:50,0.144,0.129,0.206,0.196,0.204,0.115,0.075,north-northwest,4.8,No
2024/03/02,02:00,0.145,0.128,0.205,0.193,0.203,0.115,0.075,north-northwest,4.6,No
2024/03/02,02:10,0.146,0.129,0.205,0.193,0.204,0.115,0.075,north,6.4,No
2024/03/02,02:20,0.145,0.128,0.204,0.194,0.203,0.115,0.075,north-northwest,8.4,No
2024/03/02,02:30,0.144,0.129,0.204,0.193,0.204,0.115,0.075,north-northwest,7.3,No
2024/03/02,02:40,0.145,0.130,0.204,0.194,0.204,0.116,0.075,north-northwest,8.4,No
2024/03/02,02:50,0.146,0.128,0.206,0.194,0.204,0.115,0.075,north-northwest,6.2,No
2024/03/02,03:00,0.144,0.129,0.205,0.195,0.204,0.115,0.076,north-northwest,6.7,No
2024/03/02,03:10,0.144,0.129,0.204,0.194,0.203,0.116,0.076,north-northwest,3.1,No
2024/03/02,03:20,0.144,0.129,0.206,0.194,0.205,0.116,0.076,northwest,2.7,No
2024/03/02,03:30,0.145,0.129,0.204,0.194,0.203,0.115,0.076,west,4.9,No
2024/03/02,03:40,0.144,0.129,0.206,0.195,0.203,0.115,0.076,northwest,2.6,No
2024/03/02,03:50,0.145,0.128,0.205,0.195,0.204,0.116,0.075,north-northwest,6.5,No
2024/03/02,04:00,0.145,0.129,0.205,0.193,0.204,0.115,0.076,northwest,7.3,No
2024/03/02,04:10,0.145,0.130,0.205,0.194,0.203,0.115,0.075,west-northwest,15.9,No
2024/03/02,04:20,0.144,0.129,0.204,0.194,0.205,0.116,0.076,west-northwest,12.0,No
2024/03/02,04:30,0.145,0.129,0.205,0.194,0.204,0.116,0.076,north-northwest,7.3,No
2024/03/02,04:40,0.145,0.129,0.206,0.195,0.204,0.116,0.076,north-northwest,6.4,No
2024/03/02,04:50,0.145,0.130,0.205,0.195,0.204,0.115,0.076,north-northwest,4.8,No
2024/03/02,05:00,0.145,0.130,0.204,0.194,0.204,0.115,0.076,north,4.7,No
2024/03/02,05:10,0.145,0.129,0.206,0.194,0.205,0.116,0.076,north,4.3,No
2024/03/02,05:20,0.145,0.129,0.204,0.194,0.203,0.116,0.076,north,2.4,No
2024/03/02,05:30,0.145,0.130,0.205,0.194,0.204,0.115,0.075,north,3.8,No
2024/03/02,05:40,0.146,0.129,0.205,0.194,0.204,0.115,0.076,north-northwest,4.6,No
2024/03/02,05:50,0.145,0.129,0.205,0.195,0.204,0.115,0.075,north,3.3,No
2024/03/02,06:00,0.146,0.129,0.205,0.194,0.203,0.115,0.075,north-northwest,3.2,No
2024/03/02,06:10,0.144,0.129,0.204,0.194,0.203,0.115,0.075,north-northwest,3.5,No
2024/03/02,06:20,0.145,0.129,0.205,0.194,0.204,0.114,0.075,north-northwest,2.1,No
2024/03/02,06:30,0.146,0.129,0.204,0.194,0.204,0.115,0.075,north-northwest,2.0,No
2024/03/02,06:40,0.145,0.129,0.206,0.194,0.204,0.115,0.076,northwest,1.2,No
2024/03/02,06:50,0.145,0.129,0.205,0.195,0.204,0.115,0.075,north,1.6,No
2024/03/02,07:00,0.145,0.129,0.206,0.194,0.203,0.114,0.075,north-northwest,1.5,No
2024/03/02,07:10,0.145,0.129,0.205,0.195,0.203,0.115,0.076,north-northwest,0.9,No
2024/03/02,07:20,0.145,0.129,0.204,0.194,0.204,0.115,0.076,-,CALM,No
2024/03/02,07:30,0.145,0.129,0.204,0.194,0.203,0.115,0.075,west-southwest,0.7,No
2024/03/02,07:40,0.144,0.129,0.204,0.194,0.203,0.115,0.075,-,CALM,No
2024/03/02,07:50,0.145,0.128,0.205,0.193,0.203,0.115,0.075,west-southwest,1.8,No
2024/03/02,08:00,0.145,0.129,0.206,0.193,0.203,0.115,0.074,east-northeast,1.9,No
2024/03/02,08:10,0.145,0.128,0.205,0.194,0.202,0.115,0.075,east-northeast,1.2,No
2024/03/02,08:20,0.144,0.129,0.206,0.193,0.204,0.115,0.075,west,1.8,No
2024/03/02,08:30,0.144,0.129,0.204,0.193,0.204,0.115,0.075,west-northwest,2.4,No
2024/03/02,08:40,0.144,0.129,0.204,0.193,0.203,0.115,0.075,northwest,3.3,No
2024/03/02,08:50,0.145,0.128,0.204,0.195,0.204,0.114,0.076,northwest,0.7,No
2024/03/02,09:00,0.145,0.128,0.203,0.193,0.204,0.115,0.075,west-northwest,4.1,No
2024/03/02,09:10,0.145,0.129,0.204,0.194,0.204,0.115,0.075,west-northwest,4.7,No
2024/03/02,09:20,0.144,0.128,0.205,0.194,0.204,0.115,0.075,west-northwest,4.5,No
2024/03/02,09:30,0.144,0.127,0.205,0.193,0.203,0.115,0.075,northwest,6.1,No
2024/03/02,09:40,0.144,0.129,0.204,0.192,0.203,0.114,0.075,northwest,4.0,No
2024/03/02,09:50,0.144,0.128,0.204,0.194,0.205,0.113,0.075,west,2.7,No
2024/03/02,10:00,0.145,0.130,0.204,0.193,0.203,0.115,0.074,west-northwest,6.6,No
2024/03/02,10:10,0.145,0.129,0.205,0.193,0.203,0.115,0.075,northwest,7.8,No
2024/03/02,10:20,0.144,0.129,0.205,0.195,0.204,0.115,0.075,west,5.2,No
2024/03/02,10:30,0.145,0.129,0.204,0.193,0.204,0.115,0.075,west-northwest,6.2,No
2024/03/02,10:40,0.145,0.127,0.204,0.194,0.203,0.114,0.075,west-northwest,7.3,No
2024/03/02,10:50,0.144,0.128,0.204,0.195,0.204,0.114,0.075,west-northwest,6.2,No
2024/03/02,11:00,0.145,0.129,0.204,0.194,0.204,0.115,0.075,west-northwest,9.5,No
2024/03/02,11:10,0.144,0.128,0.205,0.193,0.204,0.115,0.075,west,10.4,No
2024/03/02,11:20,0.144,0.128,0.203,0.194,0.205,0.115,0.075,west-northwest,7.8,No
2024/03/02,11:30,0.144,0.129,0.205,0.194,0.204,0.115,0.074,west-northwest,9.2,No
2024/03/02,11:40,0.144,0.128,0.206,0.194,0.204,0.115,0.075,west-northwest,7.9,No
2024/03/02,11:50,0.145,0.128,0.204,0.196,0.204,0.115,0.075,west-northwest,9.8,No
2024/03/02,12:00,0.144,0.129,0.205,0.194,0.203,0.115,0.075,west-northwest,6.5,No
2024/03/02,12:10,0.145,0.129,0.206,0.195,0.205,0.115,0.075,west,5.2,No
2024/03/02,12:20,0.144,0.129,0.205,0.196,0.203,0.116,0.075,northwest,6.5,No
2024/03/02,12:30,0.145,0.128,0.205,0.195,0.203,0.116,0.076,west-northwest,7.6,No
2024/03/02,12:40,0.145,0.129,0.206,0.194,0.203,0.116,0.075,west-northwest,8.1,No
2024/03/02,12:50,0.145,0.129,0.204,0.194,0.203,0.115,0.075,west-northwest,12.9,No
2024/03/02,13:00,0.145,0.128,0.206,0.195,0.204,0.116,0.075,west-northwest,11.5,No
2024/03/02,13:10,0.145,0.129,0.205,0.195,0.204,0.116,0.075,west-northwest,9.0,No
2024/03/02,13:20,0.145,0.129,0.207,0.196,0.204,0.116,0.075,west,7.6,No
2024/03/02,13:30,0.145,0.129,0.207,0.196,0.205,0.116,0.075,west,9.5,No
2024/03/02,13:40,0.145,0.129,0.206,0.195,0.205,0.116,0.075,west-northwest,9.8,No
2024/03/02,13:50,0.145,0.130,0.205,0.196,0.204,0.116,0.076,west,8.8,No
2024/03/02,14:00,0.145,0.129,0.206,0.195,0.206,0.115,0.076,west-northwest,7.3,No
2024/03/02,14:10,0.145,0.129,0.206,0.196,0.204,0.115,0.075,northwest,7.0,No
2024/03/02,14:20,0.145,0.129,0.204,0.196,0.205,0.116,0.075,west-northwest,7.6,No
2024/03/02,14:30,0.146,0.130,0.206,0.194,0.205,0.116,0.075,west,9.3,No
2024/03/02,14:40,0.147,0.129,0.206,0.195,0.203,0.116,0.076,west-northwest,5.8,No
2024/03/02,14:50,0.145,0.128,0.206,0.196,0.205,0.115,0.076,northwest,9.2,No
2024/03/02,15:00,0.145,0.130,0.207,0.195,0.205,0.114,0.074,northwest,7.4,No
2024/03/02,15:10,0.146,0.129,0.208,0.195,0.204,0.116,0.076,west-northwest,7.0,No
2024/03/02,15:20,0.145,0.130,0.208,0.196,0.206,0.116,0.076,northwest,5.0,No
2024/03/02,15:30,0.145,0.130,0.205,0.195,0.205,0.116,0.076,west-northwest,3.9,No
2024/03/02,15:40,0.146,0.130,0.206,0.196,0.206,0.115,0.075,west-northwest,7.7,No
2024/03/02,15:50,0.145,0.130,0.206,0.195,0.206,0.116,0.075,northwest,8.1,No
2024/03/02,16:00,0.145,0.129,0.206,0.196,0.204,0.116,0.074,northwest,10.0,No
2024/03/02,16:10,0.146,0.129,0.206,0.196,0.205,0.116,0.075,west-northwest,6.3,No
2024/03/02,16:20,0.146,0.130,0.208,0.196,0.205,0.116,0.075,west-northwest,8.6,No
2024/03/02,16:30,0.146,0.130,0.206,0.196,0.205,0.116,0.075,west-northwest,7.1,No
2024/03/02,16:40,0.146,0.129,0.205,0.196,0.205,0.117,0.074,northwest,7.5,No
2024/03/02,16:50,0.147,0.130,0.207,0.195,0.204,0.116,0.076,northwest,5.5,No
2024/03/02,17:00,0.147,0.130,0.207,0.195,0.204,0.116,0.076,west-northwest,5.6,No
2024/03/02,17:10,0.146,0.129,0.207,0.196,0.205,0.116,0.076,northwest,5.3,No
2024/03/02,17:20,0.145,0.129,0.206,0.196,0.204,0.116,0.076,northwest,4.3,No
2024/03/02,17:30,0.146,0.129,0.206,0.195,0.205,0.115,0.075,northwest,2.3,No
2024/03/02,17:40,0.145,0.130,0.206,0.196,0.205,0.116,0.075,west-northwest,1.9,No
2024/03/02,17:50,0.146,0.130,0.206,0.196,0.204,0.116,0.076,west-northwest,6.2,No
2024/03/02,18:00,0.146,0.130,0.206,0.196,0.204,0.116,0.075,west-northwest,6.6,No
2024/03/02,18:10,0.145,0.130,0.206,0.195,0.205,0.116,0.076,west-northwest,8.9,No
2024/03/02,18:20,0.145,0.129,0.205,0.195,0.204,0.115,0.076,west-northwest,7.3,No
2024/03/02,18:30,0.145,0.130,0.208,0.195,0.205,0.115,0.076,west-northwest,7.3,No
2024/03/02,18:40,0.145,0.129,0.206,0.195,0.205,0.116,0.076,west-northwest,6.2,No
2024/03/02,18:50,0.146,0.129,0.206,0.196,0.204,0.116,0.076,west-northwest,5.1,No
2024/03/02,19:00,0.147,0.130,0.207,0.196,0.205,0.115,0.076,west-northwest,3.0,No
2024/03/02,19:10,0.146,0.130,0.206,0.195,0.204,0.115,0.076,west,3.1,No
2024/03/02,19:20,0.146,0.131,0.207,0.196,0.205,0.116,0.076,northwest,3.9,No
2024/03/02,19:30,0.145,0.130,0.206,0.196,0.206,0.115,0.076,west-northwest,5.4,No
2024/03/02,19:40,0.147,0.129,0.206,0.195,0.204,0.115,0.076,west-northwest,4.8,No
2024/03/02,19:50,0.146,0.129,0.207,0.196,0.204,0.115,0.075,northwest,3.9,No
2024/03/02,20:00,0.146,0.130,0.206,0.196,0.204,0.115,0.076,west-northwest,3.0,No
2024/03/02,20:10,0.146,0.129,0.206,0.195,0.205,0.115,0.076,west-southwest,2.9,No
2024/03/02,20:20,0.145,0.131,0.206,0.196,0.204,0.116,0.075,west,3.3,No
2024/03/02,20:30,0.146,0.129,0.206,0.196,0.205,0.116,0.075,northwest,4.7,No
2024/03/02,20:40,0.145,0.129,0.207,0.196,0.204,0.116,0.076,west-northwest,4.5,No
2024/03/02,20:50,0.146,0.130,0.207,0.196,0.204,0.116,0.076,northwest,2.4,No
2024/03/02,21:00,0.145,0.130,0.206,0.196,0.205,0.115,0.075,west-northwest,2.5,No
2024/03/02,21:10,0.145,0.130,0.206,0.197,0.205,0.116,0.076,west-northwest,2.5,No
2024/03/02,21:20,0.146,0.129,0.206,0.196,0.205,0.115,0.075,northwest,2.6,No
2024/03/02,21:30,0.146,0.129,0.207,0.196,0.204,0.115,0.075,west,3.8,No
2024/03/02,21:40,0.146,0.130,0.206,0.195,0.205,0.116,0.075,west-northwest,3.7,No
2024/03/02,21:50,0.146,0.129,0.207,0.195,0.205,0.116,0.075,west-northwest,4.9,No
2024/03/02,22:00,0.146,0.130,0.207,0.196,0.205,0.116,0.076,west,8.7,No
2024/03/02,22:10,0.146,0.130,0.207,0.197,0.205,0.115,0.075,west,8.4,No
2024/03/02,22:20,0.146,0.129,0.205,0.195,0.204,0.116,0.075,west,4.6,No
2024/03/02,22:30,0.145,0.129,0.206,0.195,0.204,0.115,0.076,west-southwest,3.1,No
2024/03/02,22:40,0.146,0.130,0.206,0.196,0.206,0.115,0.076,southwest,0.9,No
2024/03/02,22:50,0.145,0.131,0.205,0.196,0.206,0.116,0.075,west-southwest,3.5,No
2024/03/02,23:00,0.145,0.130,0.206,0.196,0.204,0.115,0.077,west,2.0,No
2024/03/02,23:10,0.145,0.129,0.207,0.194,0.203,0.115,0.074,west,3.7,No
2024/03/02,23:20,0.145,0.129,0.206,0.196,0.203,0.116,0.075,west-northwest,2.3,No
2024/03/02,23:30,0.145,0.130,0.206,0.195,0.204,0.115,0.076,northwest,0.7,No
2024/03/02,23:40,0.145,0.129,0.207,0.196,0.204,0.116,0.075,west-southwest,0.7,No
2024/03/02,23:50,0.145,0.129,0.206,0.196,0.204,0.115,0.076,northwest,2.0,No
